Temp
8 7 7 7 7 7 8 8 8 10 12 13 14 14 15 16 16 17 13 14 14 16 17 20 21 21 22 19 18 17 14 14 14 14 15 14 14 12 10 10 10 11 10 10 10
8 7 7 7 7 7 7 7 9 12 13 13 14 15 15 16 15 14 14 14 15 16 18 18 19 20 16 17 17 15 14 16 15 14 13 14 13 11 11 10 10 9 9 10 10
8 7 7 7 7 7 8 8 11 13 13 13 14 15 15 16 16 14 15 16 16 16 17 17 18 19 17 17 16 15 15 17 15 15 14 13 12 12 9 11 9 9 8 9 9
7 7 7 8 7 7 8 9 12 14 14 14 14 15 15 16 19 14 15 16 17 17 18 19 19 18 15 16 15 15 14 16 16 14 14 13 11 10 10 10 9 8 9 8 7
8 7 7 8 9 8 9 12 13 14 14 14 14 15 15 15 14 15 15 16 17 18 17 18 18 16 16 15 15 14 15 13 12 12 10 11 10 9 9 8 8 9 9 7 7
8 8 8 7 9 9 9 12 14 14 14 14 14 15 15 17 14 14 15 16 17 17 16 16 18 15 14 13 14 13 12 13 12 12 12 10 9 11 9 7 8 8 7 6 7
8 8 8 8 8 10 12 12 14 13 13 14 14 15 14 14 14 15 15 15 16 17 15 16 17 16 14 13 13 13 13 12 13 13 12 10 11 10 8 8 8 7 6 6 7
8 8 8 8 8 12 13 13 13 13 13 14 14 14 13 13 14 15 15 16 16 17 17 17 17 13 14 13 14 13 12 12 14 13 12 13 12 10 7 7 7 6 5 6 6
8 7 8 8 8 11 13 13 13 13 13 14 14 14 14 13 14 14 14 15 16 17 17 18 16 13 14 11 11 13 12 12 13 12 12 11 12 10 8 7 7 5 5 5 5
8 7 8 8 8 10 13 13 13 13 13 14 14 14 13 13 13 14 14 15 15 15 16 15 11 11 11 11 14 12 12 12 11 12 11 11 10 10 8 7 7 5 5 5 5
9 7 7 8 8 9 11 13 11 11 12 14 13 13 12 12 13 13 14 15 15 14 15 14 13 11 13 12 14 12 13 12 12 12 12 10 10 9 8 7 7 5 5 5 5
9 7 7 8 8 9 10 10 12 13 12 11 11 11 12 13 13 13 14 15 16 15 14 13 14 14 12 14 16 14 12 12 12 12 12 11 10 9 8 9 9 8 6 6 5
9 7 7 7 7 9 9 12 13 13 13 11 11 11 12 13 12 12 13 14 15 14 14 14 14 14 14 14 15 13 12 10 14 11 12 11 11 10 9 8 8 8 8 7 6
9 8 7 7 8 9 9 13 13 13 9 12 11 11 11 12 12 12 12 14 14 13 12 13 12 13 14 14 13 14 12 11 10 11 10 11 9 11 9 8 9 9 7 6 5
9 8 7 8 9 9 13 14 13 13 9 12 10 11 11 12 11 11 12 14 12 12 13 13 12 13 13 13 12 13 11 10 10 10 11 10 8 11 9 9 9 9 7 5 5
9 8 7 7 8 10 13 13 13 8 9 8 9 9 10 11 11 11 12 12 11 11 9 10 11 11 11 10 11 10 10 8 7 8 4 9 9 11 10 10 10 9 7 5 4
9 8 7 7 9 11 12 11 6 6 10 8 8 9 10 9 10 10 10 10 10 11 11 10 10 10 10 10 11 10 9 4 6 2 7 8 8 10 11 10 10 9 7 5 5
9 8 7 8 10 10 11 7 5 5 7 8 8 9 10 10 10 10 9 10 10 10 8 10 10 9 10 10 10 9 9 7 8 6 8 9 7 12 11 10 9 8 8 5 4
8 7 5 6 10 10 9 6 8 6 8 8 9 8 8 10 9 10 8 9 10 8 13 9 11 8 8 9 10 10 7 9 2 -3 4 9 9 10 8 10 10 6 5 4 4
7 6 5 6 9 10 5 10 7 10 8 9 11 8 7 6 9 8 8 9 11 9 11 10 8 8 8 9 9 9 8 8 2 8 6 7 9 13 12 9 8 5 5 4 4
7 7 5 5 7 6 5 5 9 10 10 10 9 6 8 6 8 8 9 11 10 9 11 9 9 7 9 7 7 6 5 5 7 6 7 6 9 9 12 9 8 7 5 4 3
6 6 3 4 3 4 6 4 11 10 9 11 10 8 7 7 7 8 10 10 9 9 10 10 6 4 7 7 7 7 8 7 6 7 4 4 8 11 10 9 7 6 5 4 3
6 3 3 5 7 5 5 7 10 9 9 10 10 11 7 6 9 8 8 7 8 9 9 8 5 3 6 7 6 7 6 6 1 1 4 6 12 7 7 7 6 5 3 3 2
3 3 1 2 5 7 8 6 9 8 10 9 9 8 7 6 7 7 8 6 6 9 10 9 5 7 12 12 6 6 6 8 5 2 3 9 9 13 10 8 7 4 3 2 2
3 3 3 4 5 6 9 9 9 9 8 10 8 9 8 7 5 6 5 7 7 8 7 7 8 3 2 8 7 8 7 7 8 10 9 13 9 12 8 7 5 4 2 2 2
3 2 2 3 6 5 8 9 9 9 9 7 9 8 8 11 11 6 5 6 8 5 6 4 6 3 4 5 6 6 7 6 8 6 8 9 8 12 9 6 3 3 2 2 2
-0 -0 3 6 4 5 7 9 10 10 9 12 12 9 9 12 8 9 7 8 7 7 6 5 4 3 4 4 2 5 6 6 5 3 7 7 11 13 8 6 4 2 2 2 2
Height
808 810 810 811 810 810 809 807 807 806 805 805 806 805 805 804 804 802 804 805 802 799 797 794 795 794 794 800 803 809 841 854 852 852 851 852 855 864 867 870 873 874 876 879 881
807 808 809 810 809 809 808 807 806 805 805 805 806 806 806 805 805 805 808 804 803 800 797 796 796 795 804 807 810 821 842 840 837 838 847 850 853 864 871 875 880 880 879 880 881
805 807 808 808 808 807 806 806 805 805 805 806 806 806 806 805 806 808 806 804 803 801 799 798 798 799 809 810 818 826 837 832 836 836 839 849 859 862 872 875 876 879 880 880 881
804 805 805 805 806 806 804 804 804 804 805 806 807 806 806 805 811 808 806 804 803 800 800 799 799 806 818 822 823 833 836 832 835 840 843 851 859 869 871 869 869 874 876 879 881
802 802 803 803 803 804 804 803 803 804 805 805 806 806 806 808 812 808 806 805 803 801 801 800 803 810 822 825 827 836 836 841 843 845 854 855 865 870 875 873 872 874 876 877 879
800 800 801 802 801 802 802 802 802 803 804 805 806 805 807 809 810 808 808 805 803 803 803 803 803 809 822 831 835 841 846 848 849 852 855 863 869 865 874 874 874 874 877 878 879
797 798 799 800 800 800 801 801 803 804 804 805 805 805 807 810 809 809 809 807 805 804 804 806 807 810 821 834 840 843 852 853 852 852 858 860 867 866 867 872 874 876 878 878 878
794 796 797 799 798 798 800 802 803 804 804 805 805 806 809 809 810 810 809 808 808 807 806 808 809 815 824 833 840 848 856 862 854 853 859 859 862 862 865 870 874 876 877 876 875
792 793 794 798 798 799 801 802 803 804 804 805 806 805 809 810 810 811 810 810 810 809 809 809 811 827 832 845 857 854 861 861 857 854 857 861 858 858 863 868 871 874 874 874 875
789 791 793 795 798 799 801 802 803 805 805 806 807 810 812 810 809 810 811 810 812 812 812 815 828 840 845 848 851 856 857 858 861 856 858 862 862 860 865 867 867 870 871 871 872
785 788 791 794 797 798 801 804 807 810 806 804 806 809 810 810 810 810 810 811 813 816 822 823 835 841 832 837 832 844 846 851 853 851 854 859 858 858 862 864 865 867 868 869 868
781 786 790 791 794 798 800 800 799 801 808 806 808 808 808 809 812 812 811 812 814 822 822 830 832 829 833 832 829 838 848 853 853 851 854 853 851 853 855 849 849 854 859 861 864
775 782 789 791 792 796 799 797 798 798 805 808 806 807 808 810 811 813 813 811 814 822 825 830 830 827 829 833 834 842 845 859 844 856 854 857 846 842 842 843 845 845 848 852 856
770 777 786 789 796 791 796 797 798 797 824 806 810 805 806 806 812 812 813 813 815 823 827 831 833 831 832 836 839 839 842 849 859 859 869 859 872 838 838 839 837 836 842 846 852
765 770 780 788 786 788 788 793 797 798 846 802 808 806 804 807 810 812 813 811 819 824 825 829 835 834 834 838 840 841 846 852 857 864 862 864 883 830 835 837 827 829 834 840 845
757 765 775 785 785 786 786 792 797 830 832 811 807 809 810 807 809 811 811 814 819 825 834 838 837 841 842 845 844 849 853 864 875 877 911 862 864 836 831 819 814 820 828 834 841
749 759 767 774 780 783 786 793 836 841 796 809 808 806 809 814 813 811 812 818 823 831 835 837 838 840 842 847 845 851 859 915 907 933 891 867 870 831 810 808 808 812 819 828 834
740 751 760 769 776 782 784 808 838 811 801 797 800 806 805 809 813 814 817 817 817 819 841 834 843 843 840 845 846 854 857 879 888 903 875 866 869 813 802 801 803 807 812 823 832
739 748 755 764 773 782 785 815 786 793 781 789 798 810 813 806 810 812 821 816 808 814 806 835 826 842 842 843 847 852 867 858 907 945 904 855 837 809 805 802 801 810 815 820 825
736 750 756 758 768 780 800 770 783 767 773 778 775 797 810 814 807 813 819 797 795 799 795 812 841 843 843 838 850 850 851 868 901 879 896 862 846 809 793 805 805 811 812 815 821
732 743 752 760 770 784 792 780 770 762 763 769 774 798 794 804 799 804 798 785 786 798 794 810 817 851 841 842 846 861 865 867 864 869 875 881 831 795 781 795 798 798 804 809 814
724 736 746 755 774 775 770 775 752 757 760 758 763 773 784 791 796 795 786 784 782 788 796 802 831 858 843 836 836 842 841 846 864 861 881 880 829 782 784 785 790 792 798 805 810
719 739 749 741 746 757 760 757 750 754 755 757 760 756 774 785 783 788 783 789 786 785 789 799 833 866 848 842 840 840 838 840 870 872 871 870 794 791 788 788 790 792 798 802 808
722 735 750 745 734 729 734 744 746 748 745 748 752 759 771 783 779 786 783 790 790 785 784 785 819 811 789 786 818 829 826 823 842 869 854 812 803 766 781 785 784 790 792 797 802
719 724 725 730 717 718 720 722 730 738 738 739 751 746 755 777 785 784 793 791 789 787 793 794 805 826 829 803 807 801 810 814 813 801 806 773 800 753 773 778 778 779 789 796 800
716 717 722 719 719 724 717 710 714 721 719 736 733 742 743 734 736 773 780 784 777 797 797 805 809 822 823 813 809 811 802 809 806 812 804 794 789 744 759 767 777 778 782 787 791
711 711 711 699 713 718 703 680 678 697 714 693 702 731 736 720 737 737 749 752 759 772 790 802 812 822 823 819 832 815 800 797 801 805 786 797 750 739 754 760 763 769 772 771 774
Wind_Speed
3 4 3 4 4 5 7 7 7 5 3 3 4 6 8 7 5 3 6 10 10 9 6 4 5 6 6 4 5 3 5 4 8 9 6 7 5 4 4 6 4 3 4 10 12
5 5 4 4 4 3 5 7 6 2 2 3 2 4 7 7 4 10 11 13 9 9 4 7 4 5 4 3 4 5 4 8 5 7 8 8 6 7 5 4 5 5 8 13 11
7 6 5 4 4 3 4 5 4 1 2 1 1 5 6 4 1 2 14 10 6 5 2 3 3 2 5 4 5 3 4 1 5 4 9 7 5 3 10 2 5 9 7 9 11
9 7 6 4 4 4 2 3 2 2 2 1 3 5 5 2 2 5 12 9 4 3 1 1 2 4 5 4 4 6 5 2 4 5 6 5 6 5 3 4 9 10 13 9 9
11 9 7 5 4 4 2 0 2 3 3 1 2 4 1 3 1 8 10 7 2 1 4 2 4 4 5 5 4 6 1 7 8 13 8 8 5 7 3 5 13 15 11 10 10
13 11 9 7 5 4 2 1 2 4 2 1 1 2 1 2 2 7 9 6 5 4 5 6 4 5 7 5 6 5 8 4 7 7 5 7 4 3 6 6 8 9 8 9 11
15 13 11 8 5 4 3 2 3 4 3 2 2 3 3 2 2 4 6 9 9 3 4 5 4 6 5 6 4 3 7 6 4 2 3 9 1 5 8 8 9 8 7 7 10
17 15 12 9 6 4 3 3 5 4 3 3 2 2 2 2 2 3 4 7 10 13 15 14 15 9 5 6 5 5 5 3 3 4 5 3 6 6 10 10 10 9 8 7 8
18 17 12 10 6 5 6 6 4 3 3 3 2 2 1 2 1 3 4 4 6 8 10 10 8 4 4 6 5 3 4 3 1 7 5 6 5 6 9 9 10 9 8 8 6
19 18 14 10 7 5 7 7 5 3 4 4 2 2 1 4 2 2 3 4 3 3 4 6 6 4 3 3 5 7 4 3 6 6 5 6 9 4 8 9 11 9 9 8 8
21 19 16 11 7 6 10 6 5 3 3 2 4 3 2 3 2 3 3 4 2 5 3 3 4 7 13 6 3 7 5 5 1 2 5 8 6 10 10 9 10 10 10 9 10
23 21 17 12 9 9 10 3 4 3 3 1 2 3 3 4 3 1 1 4 3 4 4 4 3 3 7 3 2 5 4 2 1 2 2 5 13 9 12 15 17 15 13 13 8
26 22 18 13 11 11 8 5 4 4 3 3 3 4 3 4 3 5 1 3 4 5 2 4 0 1 3 4 3 1 5 5 2 2 2 6 8 6 7 8 8 12 14 13 15
31 25 20 15 8 10 5 11 6 4 4 4 4 3 4 5 1 0 2 2 2 6 5 3 2 2 3 3 3 3 3 6 7 4 3 2 5 6 5 11 14 15 14 13 11
34 28 25 21 9 10 8 18 4 1 1 2 3 2 3 5 7 2 1 2 5 4 5 4 3 2 3 3 0 2 4 5 3 4 3 2 2 7 2 6 17 15 14 12 13
37 32 27 21 6 7 12 17 5 6 8 3 4 5 5 2 2 4 3 3 5 5 5 3 2 2 2 3 2 6 6 8 5 3 2 5 6 5 5 7 3 12 12 14 13
42 38 33 22 6 18 23 8 4 5 3 5 5 7 1 3 2 3 7 6 7 6 4 2 1 0 3 5 5 4 5 3 4 3 6 2 3 11 6 8 7 14 14 15 15
46 43 36 24 17 23 14 5 6 5 7 3 5 8 7 6 2 4 6 6 5 3 4 7 4 8 4 2 6 4 4 5 7 3 3 0 6 7 6 5 6 9 13 14 14
47 36 29 29 26 23 5 6 7 8 9 11 5 5 3 3 5 4 6 6 9 10 7 5 2 1 3 3 2 5 4 3 7 1 3 4 7 11 7 5 3 7 11 16 16
32 16 11 37 33 20 3 17 5 3 7 4 9 5 10 9 7 8 10 6 6 11 3 8 5 1 2 5 0 3 4 3 3 1 4 4 5 7 6 8 6 8 12 13 14
25 8 22 35 28 8 8 9 6 6 4 8 9 6 5 9 8 7 9 3 7 7 5 5 4 2 3 7 9 2 3 2 3 4 5 2 6 8 12 10 13 13 12 15 16
10 4 35 45 5 3 13 8 8 7 7 6 5 4 9 11 8 7 13 4 7 10 9 4 5 4 6 2 4 4 7 7 5 5 2 3 8 5 4 7 9 10 11 12 15
5 4 22 35 9 10 6 7 5 8 8 8 8 4 3 9 4 6 7 3 2 7 11 9 1 3 5 3 1 6 6 4 4 3 7 4 8 1 5 6 7 9 9 12 13
4 3 1 4 3 20 21 11 17 7 7 6 6 5 5 3 1 7 6 2 2 2 3 7 3 7 10 5 6 7 8 15 7 4 5 12 10 19 8 9 7 8 11 14 15
2 4 5 8 17 15 19 16 19 16 9 12 6 9 9 5 3 5 2 3 5 3 3 4 6 4 4 2 3 4 7 19 19 19 9 12 14 25 10 13 12 9 8 11 15
4 3 2 1 11 14 17 20 30 26 17 10 11 15 11 15 12 11 9 4 6 2 4 1 2 3 4 1 3 5 7 13 16 6 14 15 18 23 10 6 6 10 12 15 16
4 2 2 6 11 11 19 34 36 29 15 28 29 9 11 16 6 8 3 10 13 13 10 7 6 3 6 3 4 8 14 13 7 7 11 13 24 5 8 11 11 12 15 19 19
Wind_Direction
266 288 304 327 341 351 349 354 352 7 41 60 79 54 27 40 17 43 38 335 322 340 336 336 60 92 78 67 54 102 73 165 179 162 165 171 118 32 33 96 60 32 116 128 123
240 261 281 301 322 333 349 350 352 33 75 111 92 22 5 351 42 51 358 342 331 334 5 31 32 43 53 31 27 73 102 194 193 160 151 141 111 136 98 67 57 63 87 120 111
235 248 261 282 299 317 346 348 3 61 134 144 8 353 350 354 70 335 347 342 328 321 327 346 345 66 60 31 7 38 130 81 7 130 115 119 90 88 123 80 199 173 159 125 112
224 235 253 272 293 308 328 349 18 89 146 271 334 343 348 17 180 337 352 343 325 308 295 21 36 55 69 64 8 94 14 98 113 104 85 98 101 74 25 192 144 156 148 132 120
224 233 249 255 276 294 299 293 102 129 138 135 342 351 50 56 332 358 3 357 2 55 37 35 77 110 105 98 66 76 107 41 79 82 70 90 74 134 113 136 132 138 137 145 139
227 234 244 254 252 265 271 211 145 138 124 96 23 38 60 78 5 12 6 33 45 55 53 34 122 115 86 61 64 76 75 79 46 81 90 110 146 84 218 169 142 142 157 154 152
223 233 240 243 251 247 223 167 149 142 126 102 84 90 60 144 49 33 29 37 44 96 83 50 107 73 123 90 146 81 73 48 13 71 100 120 253 214 178 170 166 170 169 164 154
220 230 237 240 239 215 194 170 147 145 129 120 97 105 119 100 59 47 62 70 87 92 84 87 86 92 76 135 51 78 65 121 250 144 190 71 259 209 176 163 184 186 187 183 172
217 228 229 242 237 209 171 157 148 139 124 129 117 133 145 143 120 25 50 58 59 78 80 77 69 90 40 93 57 9 172 176 255 206 155 178 257 204 177 178 192 197 195 195 182
223 224 226 230 231 199 165 146 128 103 112 108 75 27 173 185 137 72 75 60 47 33 37 50 57 80 54 85 198 185 186 175 199 217 176 208 252 219 195 187 203 200 205 200 192
219 214 220 219 218 186 156 136 52 359 40 231 148 120 120 115 107 84 79 92 64 44 117 31 102 188 192 173 135 140 138 166 209 193 168 229 244 223 209 209 211 211 202 207 201
211 212 213 204 193 185 178 172 193 145 129 330 107 74 123 159 92 341 59 129 140 168 123 42 217 194 167 206 190 130 124 167 307 191 173 286 261 230 204 217 208 205 202 204 188
205 206 206 196 183 184 202 200 149 131 90 231 195 160 188 161 135 182 321 143 130 132 169 158 11 95 121 166 158 110 171 174 189 118 302 341 285 222 226 216 209 214 202 199 186
205 198 202 180 181 177 202 184 141 93 55 220 226 230 129 142 123 82 336 144 74 150 129 104 356 140 117 141 111 210 184 139 128 108 220 73 277 280 228 229 222 210 198 193 178
204 192 196 182 150 170 166 182 155 75 348 162 169 134 166 157 133 331 354 33 131 119 123 209 135 136 131 153 205 199 105 114 113 96 50 215 49 270 98 240 231 214 203 188 178
199 191 186 188 186 174 162 160 144 52 241 167 122 173 128 131 136 138 120 41 140 88 36 96 94 51 122 77 4 146 72 44 47 56 353 223 170 268 204 212 246 205 198 181 172
194 189 183 181 191 160 151 122 62 174 296 201 180 161 123 150 142 163 158 165 160 124 186 55 109 233 149 79 9 75 85 10 350 360 224 10 156 251 263 235 207 197 195 180 173
191 184 182 179 167 164 150 61 191 208 188 156 118 111 171 155 212 172 127 179 252 94 129 156 281 168 175 208 181 170 162 162 210 200 254 321 233 249 229 264 222 198 191 173 173
179 164 168 173 165 171 116 203 211 196 160 140 74 107 226 216 152 153 204 206 199 187 155 140 162 118 78 66 110 188 192 157 99 49 49 226 282 295 240 240 210 166 160 181 177
157 157 180 166 161 142 82 223 214 168 119 126 159 161 175 187 156 177 172 206 211 187 165 201 100 9 141 117 4 182 158 93 1 205 264 279 275 244 266 233 221 195 195 184 174
159 157 159 160 151 134 208 218 210 203 168 151 185 146 185 174 184 199 193 248 198 173 121 136 103 285 146 203 166 152 209 65 140 168 189 240 254 220 231 196 215 216 198 184 178
145 168 158 149 140 183 208 196 177 188 197 218 124 113 171 167 167 207 204 251 156 144 171 172 112 161 209 197 150 206 202 161 141 233 263 135 266 279 200 211 212 211 192 182 183
146 111 172 162 179 197 161 224 244 170 178 180 195 182 152 168 157 203 187 36 184 159 161 178 221 78 355 354 48 212 188 151 110 109 194 146 263 6 255 259 233 206 181 178 172
119 114 157 204 233 198 196 194 207 192 184 168 162 118 121 129 320 171 167 36 2 111 97 103 135 166 192 184 132 194 187 182 150 141 177 225 282 261 237 237 225 205 191 183 180
121 182 177 200 214 204 190 192 201 206 203 166 200 194 162 138 112 152 110 127 33 35 49 126 197 158 238 227 179 206 174 187 202 216 190 235 209 252 226 223 223 206 177 173 185
165 162 167 136 213 197 203 210 201 213 176 202 222 190 184 197 182 185 140 188 180 66 148 8 225 112 300 272 187 240 207 207 215 263 250 267 273 257 254 211 170 194 179 191 197
167 154 184 196 189 194 209 214 211 197 226 207 207 163 205 214 144 157 191 153 160 159 173 158 139 109 255 30 20 288 212 194 199 204 201 215 237 236 238 214 213 201 192 197 199